Regional Weather Roundup
Issued by NWS

Home | Current Version | Previous Version | Graphics & Text | Print | Product List | Glossary On
Versions: 1 2 3 4 5 6 7 8 9 10 11 12 13 14 15 16 17 18 19 20 21 22 23 24 25 26 27 28 29 30 31 32 33 34 35 36 37 38 39 40 41 42 43 44 45 46 47 48 49 50
000
ASUS43 KMPX 201210
RWRMN
WEATHER ROUNDUP FOR MINNESOTA
NATIONAL WEATHER SERVICE TWIN CITIES/CHANHASSEN MN
600 AM CST TUE FEB 20 2018


NOTE: "FAIR" INDICATES FEW OR NO CLOUDS BELOW 12,000 FEET WITH NO
SIGNIFICANT WEATHER AND/OR OBSTRUCTIONS TO VISIBILITY. N/A MEANS
CURRENT SKY AND/OR WEATHER CONDITIONS ARE NOT AVAILABLE.

MNZ060>063-068>070-201300-
   Twin Cities Metro

CITY           SKY/WX    TMP DP  RH WIND       PRES   REMARKS
TWIN CITIES    FRZ DRZL  20  18  92 N7        29.86S WCI  11
6HR MIN TEMP:  20; 6HR MAX TEMP:  21; 6HR PCP:  0.05;

ST PAUL        CLOUDY    21  18  88 NW7       29.87R WCI  12
CRYSTAL        CLOUDY    20  16  84 N3        29.86S
BLAINE         CLOUDY    21  19  93 N6        29.86R WCI  14
LAKEVILLE      LGT SNOW  19  19 100 NW6       29.83F WCI  11
EDEN PRAIRIE   CLOUDY    20  16  84 N7        29.83S WCI  11
6HR MIN TEMP:  20; 6HR MAX TEMP:  21; 6HR PCP:  0.02;

SOUTH ST PAUL  CLOUDY    21  19  89 N6        29.85S WCI  14
LAKE ELMO      LGT SNOW  21  19  93 CALM      29.85S
$$
MNZ001>005-007-008-013>017-022>024-027-028-201300-
   Northwest Minnesota

CITY           SKY/WX    TMP DP  RH WIND       PRES   REMARKS
BEMIDJI        LGT SNOW   5   1  84 N7        29.94S WCI  -7
HALLOCK        LGT SNOW   3  -2  78 N10       30.08F WCI -12
WARROAD        LGT SNOW   3   0  85 NE6       30.04F WCI  -8
THIEF RVR FALL LGT SNOW   4   0  83 N13       30.03S FOG     WCI -13
CROOKSTON      LGT SNOW   5   1  85 N15       30.08R WCI -13
FOSSTON        LGT SNOW   3  -2  78 N10       29.97F WCI -12
DETROIT LAKES  LGT SNOW   9   5  85 N7        29.94S WCI  -3
MOORHEAD       LGT SNOW   3   0  85 N17       30.03R WCI -17
PARK RAPIDS    LGT SNOW   7   2  80 N12       29.89F WCI  -8
MAHNOMEN       LGT SNOW   5   1  83 N13       29.97R WCI -12
$$
MNZ006-009>011-018-025>026-201300-
   North Central Minnesota

CITY           SKY/WX    TMP DP  RH WIND       PRES   REMARKS
BAUDETTE       LGT SNOW   4   0  83 N7        30.03F FOG     WCI  -8
FLAG ISLAND    LGT SNOW   3  -2  78 NE7       30.08R WCI  -9
INTL FALLS     LGT SNOW   4   0  83 N7        30.00S VSB 3/4 WCI  -8
6HR MIN TEMP:   4; 6HR MAX TEMP:   7; 6HR PCP:  0.13;

WASKISH        LGT SNOW   5   1  85 N5        29.99F WCI  -4
BIG FORK       LGT SNOW   5   1  85 CALM      29.94F VSB 3/4
LONGVILLE      LGT SNOW   7   3  85 N6        29.91F WCI  -3
GRAND RAPIDS   LGT SNOW   5   1  83 N9        29.93F FOG     WCI  -9
CRANE LAKE     SNOW       3   0  85 CALM      30.02R VSB 1/4
ORR            LGT SNOW   3  -2  78 CALM      29.92F
COOK           SNOW       3   1  92 CALM      29.93F VSB 1/4
WALKER         LGT SNOW   5   1  83 N8        29.94R WCI  -8
$$
MNZ012-019>021-037-201300-
   Northeast Minnesota

CITY           SKY/WX    TMP DP  RH WIND       PRES   REMARKS
DULUTH         LGT SNOW   9   5  84 N12       29.85F VSB 3/4 WCI  -6
6HR MIN TEMP:   9; 6HR MAX TEMP:  14; 6HR PCP:  0.13;

ELY            LGT SNOW   3   0  85 N3        29.93R VSB 1
HIBBING        LGT SNOW   4   0  83 N8        29.88F VSB 1   WCI  -9
EVELETH        LGT SNOW N/A N/A N/A NE8       29.90F
DULUTH HARBOR  LGT SNOW  18  16  93 N17       29.92S VSB 3/4 WCI   2
TWO HARBORS    SNOW      16   9  73 N5        29.87R VSB 1/2 WCI   9
GRAND MARAIS     N/A     12   6  77 NE9G16    29.96R WCI   0
G MARAIS ARPRT LGT SNOW   3  -2  78 N9        29.86R WCI -11
$$
MNZ029>031-032-039>041-046>048-054>057-064-201300-
   West Central Minnesota

CITY           SKY/WX    TMP DP  RH WIND       PRES   REMARKS
FERGUS FALLS   CLOUDY     7   1  78 N8        29.97R WCI  -6
WHEATON        FLURRIES   3   0  85 NW12      30.00R WCI -13
MORRIS         FLURRIES   9   5  85 NW14      29.91S WCI  -8
ALEXANDRIA     CLOUDY     9   5  84 N12       29.88F WCI  -6
ELBOW LAKE     FLURRIES   8   5  86 N8        29.94R WCI  -4
WADENA         FLURRIES   7   3  85 N10       29.88F WCI  -8
GLENWOOD       CLOUDY     9   7  92 N13       29.87F WCI  -7
APPLETON       CLOUDY    10   7  85 N12       29.94R WCI  -4
BENSON         FLURRIES  10   7  85 N12       29.91F WCI  -4
ORTONVILLE     FLURRIES   7   1  78 N15G22    29.94R WCI -11
MADISON        FLURRIES  10   7  85 NW16      29.97R WCI  -7
WILLMAR        CLOUDY    10   7  85 NW6       29.91R WCI   1
$$
MNZ033>034-036-042>043-049>051-058-059-201300-
   Central Minnesota

CITY           SKY/WX    TMP DP  RH WIND       PRES   REMARKS
ST CLOUD       CLOUDY    12   9  87 N10       29.86F WCI  -1
6HR MIN TEMP:  12; 6HR MAX TEMP:  15; 6HR PCP:  0.15;

SAUK CENTRE    CLOUDY    10   6  84 N12       29.87F WCI  -5
PAYNESVILLE    CLOUDY    12  10  89 N8        29.87F WCI   1
AITKIN         LGT SNOW   7   3  85 N9        29.88F WCI  -7
PINE RIVER     LGT SNOW   7   1  78 N9        29.94R WCI  -7
BRAINERD       LGT SNOW   9   4  80 N8        29.89S WCI  -3
STAPLES        FLURRIES   7   3  85 N6        29.88F WCI  -3
LONG PRAIRIE   CLOUDY     9   5  85 NW9       29.88S WCI  -5
LITTLE FALLS   FLURRIES  12   3  67 N7        29.89S WCI   2
LITCHFIELD     FLURRIES  14  10  85 N9        29.86R WCI   2
BUFFALO        CLOUDY    15  12  88 N5        29.87S WCI   8
MAPLE LAKE     CLOUDY    15  13  90 N9        29.87S WCI   3
HUTCHINSON     CLOUDY    16  12  86 N9        29.87R WCI   4
$$
MNZ037-044-045-052-053-201300-
   East Central Minnesota

CITY           SKY/WX    TMP DP  RH WIND       PRES   REMARKS
PRINCETON      LGT SNOW  14  10  85 N8        29.85S WCI   3
MORA           LGT SNOW  14  10  85 N3        29.88F
CAMBRIDGE      LGT SNOW  19  12  73 N6        29.84F WCI  11
RUSH CITY      LGT SNOW  18  15  89 N7        29.87F WCI   8
MOOSE LAKE     LGT SNOW  12   7  79 NE8       29.85F WCI   1
HINCKLEY       LGT SNOW  18  14  86 N9        29.86S WCI   6
CLOQUET        LGT SNOW   9   3  78 N9        29.86F WCI  -5
MCGREGOR       CLOUDY    10   7  85 N10       29.88F WCI  -3
$$
MNZ071>073-080-081-089-090-097-098-201300-
   Southwest Minnesota

CITY           SKY/WX    TMP DP  RH WIND       PRES   REMARKS
MONTEVIDEO     CLOUDY    10   9  92 N10       29.92R WCI  -3
GRANITE FALLS  FLURRIES  14  10  86 NW9       29.94R WCI   2
CANBY          CLOUDY     9   5  85 W14       29.96R WCI  -8
MARSHALL       FLURRIES   8   5  87 NW15      29.93R WCI  -9
REDWOOD FALLS  LGT SNOW  13  11  92 NW8       29.91R FOG     WCI   2
OLIVIA         CLOUDY    16  12  86 NW7       29.88R WCI   6
PIPESTONE      CLOUDY     7   3  85 N8        29.88S WCI  -6
WINDOM         FLURRIES  12   0  57 CALM      29.86R
WORTHINGTON    FLURRIES  10   7  87 N14       29.87R WCI  -6
JACKSON        CLOUDY    14  10  85 NW13      29.86R WCI   0
TRACY          LGT SNOW  10   7  90 NW13      29.90R WCI  -6
SLAYTON        LGT SNOW   8   5  89 NW13      29.91R WCI  -8
$$
MNZ065>067-074>077-082>085-091>093-201300-
   South Central Minnesota

CITY           SKY/WX    TMP DP  RH WIND       PRES   REMARKS
MANKATO        FLURRIES  18  16  92 N10       29.85S WCI   6
NEW ULM        CLOUDY    16  10  79 N6        29.87S WCI   7
ST JAMES       CLOUDY    16  12  86 NW7       29.88S WCI   6
FAIRMONT       CLOUDY    16  14  92 N13       29.86S WCI   2
GLENCOE        CLOUDY    17  14  88 N9        29.84R WCI   6
FARIBAULT      CLOUDY    19  18  93 CALM      29.83F
OWATONNA       LGT SNOW  19  18  93 CALM      29.80F
WASECA         CLOUDY    19  18  93 NW6       29.84F WCI  11
ALBERT LEA     CLOUDY    21  19  93 NW3       29.81S
$$
MNZ078>079-086>088-094>096-201300-
   Southeast Minnesota

CITY           SKY/WX    TMP DP  RH WIND       PRES   REMARKS
ROCHESTER      FRZ RAIN  25  25 100 NW9       29.77F WCI  15
6HR MIN TEMP:  24; 6HR MAX TEMP:  28; 6HR PCP:  0.12;

RED WING       LGT SNOW  23  18  80 NW3       29.82F
STANTON        LGT SNOW  22  19  90 N5        29.82F WCI  15
DODGE CENTER   LGT SNOW  21  19  93 NW5       29.78F WCI  15
WINONA         MIX PCPN  30  28  93 CALM      29.81S
AUSTIN         CLOUDY    25  21  86 NW5       29.79S WCI  19
PRESTON        CLOUDY    29  28  95 CALM      29.77F FOG
$$
ABBREVIATIONS USED IN REMARKS
   TC - TEMPERATURES IN CELSIUS
  WCI - WIND CHILL INDEX
   HX - HEAT INDEX
  VSB - VISIBILITY
$$



USA.gov is the U.S. government's official web portal to all federal, state and local government web resources and services.